This is the latest recevied weather packets stored in our database for station/object KC5TIL-3. If no packets are shown the sender has not sent any weather packets the latest 10 day(s).
| Time | Temp. | Humidity | Pressure | Rain* | Wind** | Luminosity | Snow |
|---|---|---|---|---|---|---|---|
| 1787538375 | 37.22° C | 10% | 1009.8 hPa | 0 mm | 3.13 m/s, 199° | - | - |
| 1787538072 | 37.22° C | 10% | 1009.8 hPa | 0 mm | 3.13 m/s, 165° | - | - |
| 1787537773 | 37.22° C | 10% | 1009.8 hPa | 0 mm | 3.13 m/s, 187° | - | - |
| 1787537472 | 37.22° C | 10% | 1009.8 hPa | 0 mm | 2.24 m/s, 195° | - | - |
| 1787537174 | 37.22° C | 10% | 1009.8 hPa | 0 mm | 2.24 m/s, 198° | - | - |
| 1787536871 | 37.78° C | 10% | 1008.8 hPa | 0 mm | 3.13 m/s, 203° | - | - |
| 1787536570 | 37.78° C | 10% | 1008.8 hPa | 0 mm | 2.24 m/s, 212° | - | - |
| 1787536267 | 37.78° C | 10% | 1008.8 hPa | 0 mm | 2.24 m/s, 121° | - | - |
| 1787535969 | 37.78° C | 10% | 1008.8 hPa | 0 mm | 2.24 m/s, 155° | - | - |
| 1787535663 | 37.78° C | 10% | 1008.8 hPa | 0 mm | 1.79 m/s, 144° | - | - |
| 1787535365 | 38.33° C | 10% | 1008.8 hPa | 0 mm | 1.79 m/s, 145° | - | - |
| 1787535066 | 38.33° C | 10% | 1008.8 hPa | 0 mm | 1.79 m/s, 137° | - | - |
| 1787534765 | 38.33° C | 10% | 1008.8 hPa | 0 mm | 1.79 m/s, 217° | - | - |
| 1787534467 | 38.33° C | 10% | 1008.8 hPa | 0 mm | 1.79 m/s, 154° | - | - |
| 1787534169 | 38.89° C | 10% | 1008.8 hPa | 0 mm | 1.79 m/s, 177° | - | - |
| 1787533867 | 38.89° C | 10% | 1008.8 hPa | 0 mm | 1.79 m/s, 220° | - | - |
| 1787533569 | 38.89° C | 10% | 1008.8 hPa | 0 mm | 2.24 m/s, 187° | - | - |
| 1787533271 | 38.89° C | 10% | 1008.8 hPa | 0 mm | 1.79 m/s, 205° | - | - |
| 1787532970 | 38.89° C | 10% | 1008.8 hPa | 0 mm | 2.68 m/s, 219° | - | - |
| 1787532672 | 39.44° C | 10% | 1008.8 hPa | 0 mm | 1.79 m/s, 136° | - | - |
| 1787532373 | 39.44° C | 10% | 1008.8 hPa | 0 mm | 1.79 m/s, 137° | - | - |
| 1787532072 | 39.44° C | 10% | 1008.8 hPa | 0 mm | 2.68 m/s, 207° | - | - |
| 1787531774 | 39.44° C | 10% | 1008.8 hPa | 0 mm | 2.24 m/s, 127° | - | - |
| 1787531476 | 39.44° C | 10% | 1008.8 hPa | 0 mm | 3.58 m/s, 166° | - | - |
| 1787531174 | 39.44° C | 10% | 1008.8 hPa | 0 mm | 3.13 m/s, 206° | - | - |
* Rain latest hour (hover to see other rain measurements)
** Current wind speed in m/s (hover to see current wind gust speed)